CSAPA LPFR-LPPM

Flight info

Callsign CSAPA
Flight time 0h 23m
Altitude 1500
Route LPFR/28 DCT VMOUR SHORELINE CARVO DCT LPPM
Aircraft C152/L-V/N

Departure

Time 2026-05-04 15:24
Airport Faro - Gago Coutinho International Airport (LPFR)

Arrival

Time 2026-05-04 15:47
Airport Portimão Airport (LPPM)
Time Latitude Longitude Altitude Speed Heading
2026-05-04 15:11 37.01746 -7.96965 27 ft 0 kts 335°
2026-05-04 15:12 37.01746 -7.96966 27 ft 0 kts 335°
2026-05-04 15:14 37.01747 -7.96966 27 ft 0 kts 335°
2026-05-04 15:18 37.01753 -7.96969 27 ft 4 kts 335°
2026-05-04 15:19 37.01795 -7.96949 27 ft 10 kts 101°
2026-05-04 15:19 37.01785 -7.96891 27 ft 6 kts 124°
2026-05-04 15:19 37.01687 -7.96903 27 ft 11 kts 182°
2026-05-04 15:20 37.01667 -7.96850 27 ft 10 kts 98°
2026-05-04 15:20 37.01651 -7.96740 27 ft 15 kts 100°
2026-05-04 15:20 37.01636 -7.96631 27 ft 10 kts 100°
2026-05-04 15:20 37.01627 -7.96573 27 ft 7 kts 100°
2026-05-04 15:21 37.01610 -7.96549 27 ft 3 kts 187°
2026-05-04 15:21 37.01603 -7.96551 27 ft 0 kts 187°
2026-05-04 15:21 37.01601 -7.96551 27 ft 2 kts 187°
2026-05-04 15:22 37.01569 -7.96553 27 ft 5 kts 186°
2026-05-04 15:22 37.01547 -7.96558 27 ft 2 kts 190°
2026-05-04 15:22 37.01471 -7.96575 27 ft 10 kts 196°
2026-05-04 15:23 37.01449 -7.96640 27 ft 15 kts 278°
2026-05-04 15:23 37.01498 -7.96993 29 ft 67 kts 281°
2026-05-04 15:23 37.01598 -7.97603 235 ft 69 kts 282°
2026-05-04 15:23 37.01683 -7.98202 452 ft 72 kts 279°
2026-05-04 15:24 37.01824 -7.99590 859 ft 81 kts 275°
2026-05-04 15:24 37.02056 -8.01032 1247 ft 86 kts 291°
2026-05-04 15:25 37.02307 -8.01721 1415 ft 87 kts 295°
2026-05-04 15:25 37.02575 -8.02419 1502 ft 92 kts 296°
2026-05-04 15:25 37.02877 -8.03141 1522 ft 95 kts 300°
2026-05-04 15:26 37.03646 -8.04612 1488 ft 105 kts 305°
2026-05-04 15:26 37.04047 -8.05374 1481 ft 106 kts 302°
2026-05-04 15:26 37.04823 -8.06965 1428 ft 107 kts 302°
2026-05-04 15:27 37.05205 -8.07750 1442 ft 105 kts 300°
2026-05-04 15:27 37.05935 -8.09340 1435 ft 105 kts 299°
2026-05-04 15:28 37.06652 -8.10918 1459 ft 104 kts 299°
2026-05-04 15:28 37.06985 -8.11717 1481 ft 103 kts 296°
2026-05-04 15:28 37.07573 -8.13344 1508 ft 103 kts 294°
2026-05-04 15:29 37.07870 -8.14167 1516 ft 103 kts 294°
2026-05-04 15:30 37.08646 -8.17602 1493 ft 103 kts 277°
2026-05-04 15:30 37.08639 -8.20286 1473 ft 103 kts 264°
2026-05-04 15:31 37.08435 -8.22058 1469 ft 103 kts 261°
2026-05-04 15:31 37.08310 -8.22931 1470 ft 103 kts 257°
2026-05-04 15:32 37.07663 -8.25491 1446 ft 104 kts 258°
2026-05-04 15:32 37.07491 -8.27255 1460 ft 102 kts 268°
2026-05-04 15:33 37.07659 -8.29008 1470 ft 101 kts 282°
2026-05-04 15:34 37.08078 -8.31601 1484 ft 101 kts 281°
2026-05-04 15:34 37.08203 -8.32471 1487 ft 101 kts 279°
2026-05-04 15:34 37.08391 -8.34220 1495 ft 101 kts 276°
2026-05-04 15:35 37.08480 -8.35686 1487 ft 106 kts 272°
2026-05-04 15:35 37.08486 -8.36641 1507 ft 107 kts 269°
2026-05-04 15:35 37.08453 -8.37505 1496 ft 94 kts 266°
2026-05-04 15:36 37.08433 -8.39241 1466 ft 102 kts 272°
2026-05-04 15:36 37.08498 -8.40123 1490 ft 102 kts 280°
2026-05-04 15:36 37.08614 -8.40995 1490 ft 101 kts 278°
2026-05-04 15:37 37.08727 -8.41867 1478 ft 102 kts 280°
2026-05-04 15:37 37.08867 -8.42733 1473 ft 102 kts 282°
2026-05-04 15:37 37.09019 -8.43597 1467 ft 101 kts 282°
2026-05-04 15:37 37.09168 -8.44460 1448 ft 101 kts 282°
2026-05-04 15:38 37.09351 -8.45307 1343 ft 101 kts 288°
2026-05-04 15:38 37.09594 -8.46135 1230 ft 100 kts 291°
2026-05-04 15:38 37.09827 -8.46947 1129 ft 100 kts 290°
2026-05-04 15:38 37.10087 -8.47740 1036 ft 96 kts 295°
2026-05-04 15:39 37.10396 -8.48496 988 ft 98 kts 297°
2026-05-04 15:39 37.10701 -8.49254 981 ft 98 kts 297°
2026-05-04 15:39 37.11320 -8.50762 978 ft 97 kts 296°
2026-05-04 15:40 37.11604 -8.51531 976 ft 97 kts 291°
2026-05-04 15:40 37.11836 -8.52328 977 ft 97 kts 289°
2026-05-04 15:40 37.12060 -8.53126 978 ft 97 kts 289°
2026-05-04 15:40 37.12255 -8.53925 962 ft 98 kts 283°
2026-05-04 15:41 37.12358 -8.54760 982 ft 96 kts 276°
2026-05-04 15:41 37.12397 -8.55603 968 ft 97 kts 268°
2026-05-04 15:41 37.12335 -8.56442 977 ft 96 kts 266°
2026-05-04 15:41 37.12420 -8.57272 970 ft 97 kts 291°
2026-05-04 15:42 37.12843 -8.57935 916 ft 101 kts 322°
2026-05-04 15:42 37.13456 -8.58342 904 ft 100 kts 339°
2026-05-04 15:42 37.14092 -8.58609 978 ft 92 kts 343°
2026-05-04 15:42 37.14768 -8.58764 824 ft 97 kts
2026-05-04 15:43 37.15403 -8.58713 834 ft 91 kts
2026-05-04 15:43 37.16013 -8.58484 806 ft 93 kts 34°
2026-05-04 15:43 37.16352 -8.57837 802 ft 91 kts 78°
2026-05-04 15:43 37.16269 -8.57056 796 ft 91 kts 108°
2026-05-04 15:44 37.16075 -8.56331 816 ft 89 kts 112°
2026-05-04 15:44 37.15823 -8.55619 801 ft 89 kts 116°
2026-05-04 15:44 37.15537 -8.54946 800 ft 86 kts 115°
2026-05-04 15:44 37.15331 -8.54244 780 ft 85 kts 110°
2026-05-04 15:45 37.15099 -8.53570 777 ft 83 kts 123°
2026-05-04 15:45 37.14660 -8.53184 813 ft 73 kts 169°
2026-05-04 15:45 37.14156 -8.53300 738 ft 74 kts 201°
2026-05-04 15:45 37.13763 -8.53665 707 ft 71 kts 243°
2026-05-04 15:46 37.13809 -8.54284 612 ft 76 kts 291°
2026-05-04 15:46 37.14002 -8.54864 557 ft 73 kts 293°
2026-05-04 15:46 37.14185 -8.55456 504 ft 72 kts 287°
2026-05-04 15:46 37.14321 -8.56061 435 ft 73 kts 286°
2026-05-04 15:47 37.14467 -8.56659 357 ft 70 kts 289°
2026-05-04 15:47 37.14629 -8.57215 206 ft 66 kts 286°
2026-05-04 15:47 37.14757 -8.57763 74 ft 65 kts 288°
2026-05-04 15:47 37.14882 -8.58252 9 ft 49 kts 287°
2026-05-04 15:48 37.14944 -8.58501 8 ft 6 kts 273°
2026-05-04 15:48 37.14954 -8.58527 8 ft 2 kts 48°
2026-05-04 15:48 37.14911 -8.58348 8 ft 15 kts 109°
2026-05-04 15:49 37.14873 -8.58211 8 ft 18 kts 109°
2026-05-04 15:49 37.14840 -8.58073 8 ft 13 kts 107°
2026-05-04 15:49 37.14813 -8.58040 8 ft 4 kts 200°
2026-05-04 15:49 37.14774 -8.58057 8 ft 4 kts 205°
2026-05-04 15:50 37.14760 -8.58086 8 ft 4 kts 282°
2026-05-04 15:50 37.14769 -8.58120 8 ft 3 kts 289°
2026-05-04 15:50 37.14779 -8.58153 8 ft 3 kts 289°
2026-05-04 15:50 37.14783 -8.58170 8 ft 0 kts 289°
2026-05-04 15:52 37.14784 -8.58173 8 ft 1 kts 289°
2026-05-04 15:52 37.14789 -8.58194 8 ft 3 kts 273°
2026-05-04 15:52 37.14782 -8.58202 8 ft 0 kts 195°
2026-05-04 15:53 37.14781 -8.58202 8 ft 0 kts 195°